Back to catalog

KUIPER-00152

AliveCommunicationsLEO
NORAD 65772·PAYLOAD·🇺🇸 United States

Launched Sep 25, 2025 from Cape Canaveral Space Force Station

Loading…

Next Passes (next 24 hours)

TLE

FreshSource: CelesTrak SupGP

Epoch: Sep 14, 2026, 13:19 UTC

1 65772C 25217L   26257.55549769  .00006642  00000+0  86978-3 0  2571
2 65772  51.8991 275.4399 0000495  49.0805 192.6728 14.79909514    10

Track KUIPER-00152 in real time with AllMySat

Download on the App Store